Regional Weather Roundup
Issued by NWS

Home | Current Version | Previous Version | Text Only | Print | Product List | Glossary Off
Versions: 1 2 3 4 5 6 7 8 9 10 11 12 13 14 15 16 17 18 19 20 21 22 23 24 25 26 27 28 29 30 31 32 33 34 35 36 37 38 39 40 41 42 43 44 45 46 47 48 49 50

000
ASUS43 KLMK 260402
RWRKY
KENTUCKY REGIONAL WEATHER ROUNDUP
NATIONAL WEATHER SERVICE LOUISVILLE KY
1200 AM EDT TUE MAY 26 2015

NOTE "FAIR" INDICATES FEW OR NO CLOUDS BELOW 12,000 FEET
WITH NO SIGNIFICANT WEATHER AND/OR OBSTRUCTIONS TO VISIBILITY.

KYZ001>023-026-027-061>063-070>075-260500-
WESTERN AND SOUTH CENTRAL KENTUCKY

CITY           SKY/WX    TMP DP  RH WIND       PRES   REMARKS
PADUCAH        MOCLDY    70  67  90 SE6       30.02S
HENDERSON      MOCLDY    68  64  88 SE9       30.04F
OWENSBORO      CLOUDY    69  68  97 SE7       30.08F
HOPKINSVILLE   MOCLDY    69  67  94 SE7       30.08F
BOWLING GREEN  CLOUDY    65  63  93 E5        30.12F
GLASGOW        NOT AVBL
$$

KYZ024-025-028>034-038-045-046-053-260500-
NORTH CENTRAL KENTUCKY

CITY           SKY/WX    TMP DP  RH WIND       PRES   REMARKS
LOUISVILLE/SDF MOCLDY    71  66  84 S8        30.11F
LOUISVILLE/LOU MOCLDY    71  66  84 S5        30.13R
FORT KNOX      MOCLDY    67  65  92 S7        30.11F
$$

KYZ035>037-039>044-047>052-055>060-089>105-260500-
NORTHEAST KENTUCKY

CITY           SKY/WX    TMP DP  RH WIND       PRES   REMARKS
LEXINGTON      PTCLDY    65  63  93 SW3       30.15R
COVINGTON      MOCLDY    69  64  84 S6        30.13R
FRANKFORT      CLOUDY    67  63  87 CALM      30.13R
$$

KYZ054-064>069-076>088-106>120-260500-
SOUTHEAST KENTUCKY

CITY           SKY/WX    TMP DP  RH WIND       PRES   REMARKS
JACKSON        PTCLDY    72  62  71 NW3       30.18R
LONDON         CLOUDY    71  62  73 SE6       30.17S
SOMERSET       NOT AVBL
MIDDLESBORO    NOT AVBL
MONTICELLO     CLOUDY    68  65  90 S5        30.20R
$$



USA.gov is the U.S. government's official web portal to all federal, state and local government web resources and services.